EN

Hourly Weather Alkino

Today, 15 January, Friday

Time Temperature Precipitation Wind Pressure Humidity
00:00 -15°C° 0.5 mm 7 mps 753 mmHg 94%
01:00 -15°C° 0.9 mm 6 mps 753 mmHg 94%
02:00 -14°C° 0.9 mm 6 mps 753 mmHg 94%
03:00 -12°C° 0 mm 5 mps 753 mmHg 96%
04:00 -12°C° 0.3 mm 5 mps 752 mmHg 95%
05:00 -10°C° 0.3 mm 4 mps 752 mmHg 95%
06:00 -10°C° 0.3 mm 4 mps 752 mmHg 94%
07:00 -10°C° 0.6 mm 4 mps 752 mmHg 94%
08:00 -9°C° 0.6 mm 4 mps 752 mmHg 94%
09:00 -8°C° 0 mm 3 mps 752 mmHg 94%
10:00 -8°C° 0 mm 3 mps 752 mmHg 94%
11:00 -8°C° 0 mm 3 mps 751 mmHg 94%
12:00 -8°C° 0 mm 3 mps 751 mmHg 93%
13:00 -8°C° 0 mm 3 mps 751 mmHg 93%
14:00 -8°C° 0 mm 3 mps 751 mmHg 93%
15:00 -8°C° 0 mm 3 mps 751 mmHg 94%
16:00 -8°C° 0 mm 3 mps 750 mmHg 94%
17:00 -8°C° 0 mm 3 mps 750 mmHg 93%
18:00 -9°C° 0 mm 4 mps 749 mmHg 93%
19:00 -9°C° 0 mm 4 mps 749 mmHg 92%
20:00 -10°C° 0 mm 5 mps 748 mmHg 92%
21:00 -10°C° 0 mm 5 mps 747 mmHg 91%
22:00 -10°C° 0.5 mm 5 mps 746 mmHg 92%
23:00 -11°C° 0.5 mm 5 mps 746 mmHg 93%

Tomorrow, 16 January, Saturday

Time Temperature Precipitation Wind Pressure Humidity
00:00 -11°C° 0.5 mm 6 mps 745 mmHg 94%
01:00 -10°C° 0.6 mm 6 mps 744 mmHg 94%
02:00 -10°C° 0.6 mm 6 mps 743 mmHg 95%
03:00 -9°C° 0.6 mm 7 mps 742 mmHg 95%
04:00 -9°C° 1 mm 6 mps 742 mmHg 95%
05:00 -8°C° 1 mm 6 mps 741 mmHg 95%
06:00 -6°C° 1 mm 6 mps 740 mmHg 95%
07:00 -6°C° 0.2 mm 6 mps 741 mmHg 94%
08:00 -7°C° 0.2 mm 7 mps 741 mmHg 93%
09:00 -7°C° 0.2 mm 7 mps 742 mmHg 92%
10:00 -8°C° 0 mm 8 mps 742 mmHg 91%
11:00 -11°C° 0 mm 8 mps 743 mmHg 90%
12:00 -12°C° 0 mm 8 mps 743 mmHg 88%
13:00 -13°C° 0.1 mm 8 mps 744 mmHg 89%
14:00 -15°C° 0.1 mm 8 mps 744 mmHg 89%
15:00 -15°C° 0.1 mm 8 mps 745 mmHg 90%
16:00 -15°C° 0.1 mm 8 mps 745 mmHg 91%
17:00 -13°C° 0.1 mm 8 mps 745 mmHg 92%
18:00 -13°C° 0.1 mm 8 mps 745 mmHg 92%
19:00 -12°C° 0.3 mm 8 mps 745 mmHg 92%
20:00 -12°C° 0.3 mm 8 mps 745 mmHg 92%
21:00 -11°C° 0.3 mm 8 mps 745 mmHg 92%
22:00 -12°C° 0.3 mm 8 mps 745 mmHg 92%
23:00 -12°C° 0.3 mm 8 mps 744 mmHg 92%

Day after tomorrow, 17 January, Sunday

Time Temperature Precipitation Wind Pressure Humidity
00:00 -13°C° 0.3 mm 8 mps 744 mmHg 93%
01:00 -14°C° 0.3 mm 7 mps 745 mmHg 92%
02:00 -15°C° 0.3 mm 7 mps 746 mmHg 92%
03:00 -17°C° 0.3 mm 7 mps 746 mmHg 92%
04:00 -17°C° 0.1 mm 7 mps 747 mmHg 92%
05:00 -17°C° 0.1 mm 6 mps 747 mmHg 92%
06:00 -18°C° 0.1 mm 6 mps 748 mmHg 92%
07:00 -20°C° 0 mm 6 mps 748 mmHg 92%
08:00 -20°C° 0 mm 6 mps 749 mmHg 93%
09:00 -21°C° 0 mm 6 mps 750 mmHg 94%
10:00 -21°C° 0 mm 6 mps 750 mmHg 93%
11:00 -20°C° 0 mm 5 mps 750 mmHg 93%
12:00 -21°C° 0 mm 5 mps 751 mmHg 93%
13:00 -20°C° 0 mm 4 mps 751 mmHg 94%
14:00 -22°C° 0 mm 4 mps 752 mmHg 95%
15:00 -22°C° 0 mm 3 mps 752 mmHg 96%
16:00 -23°C° 0 mm 3 mps 753 mmHg 97%
17:00 -23°C° 0 mm 2 mps 753 mmHg 98%
18:00 -24°C° 0 mm 2 mps 753 mmHg 99%
19:00 -25°C° 0 mm 2 mps 754 mmHg 99%
20:00 -22°C° 0 mm 1 mps 754 mmHg 99%
21:00 -23°C° 0 mm 1 mps 755 mmHg 99%
22:00 -23°C° 0 mm 1 mps 755 mmHg 99%
23:00 -24°C° 0 mm 0 mps 755 mmHg 99%

18 January, Monday

Time Temperature Precipitation Wind Pressure Humidity
00:00 -24°C° 0 mm 0 mps 755 mmHg 99%
01:00 -24°C° 0 mm 0 mps 755 mmHg 99%
02:00 -25°C° 0 mm 0 mps 755 mmHg 99%
03:00 -25°C° 0 mm 0 mps 756 mmHg 99%
04:00 -25°C° 0 mm 0 mps 756 mmHg 99%
05:00 -25°C° 0 mm 0 mps 756 mmHg 99%
06:00 -25°C° 0 mm 1 mps 756 mmHg 99%
07:00 -24°C° 0 mm 1 mps 756 mmHg 98%
08:00 -24°C° 0 mm 1 mps 756 mmHg 97%
09:00 -23°C° 0 mm 1 mps 757 mmHg 96%
10:00 -22°C° 0 mm 1 mps 757 mmHg 95%
11:00 -21°C° 0 mm 1 mps 757 mmHg 94%
12:00 -19°C° 0 mm 1 mps 757 mmHg 93%
13:00 -20°C° 0 mm 1 mps 756 mmHg 93%
14:00 -20°C° 0 mm 1 mps 756 mmHg 93%
15:00 -20°C° 0 mm 1 mps 756 mmHg 93%
16:00 -20°C° 0 mm 1 mps 756 mmHg 92%
17:00 -23°C° 0 mm 2 mps 756 mmHg 92%
18:00 -23°C° 0 mm 2 mps 756 mmHg 92%
19:00 -21°C° 0 mm 2 mps 755 mmHg 91%
20:00 -23°C° 0 mm 3 mps 755 mmHg 90%
21:00 -22°C° 0 mm 3 mps 755 mmHg 90%
22:00 -22°C° 0 mm 3 mps 755 mmHg 90%
23:00 -21°C° 0 mm 3 mps 755 mmHg 91%

19 January, Tuesday

Time Temperature Precipitation Wind Pressure Humidity
00:00 -21°C° 0 mm 3 mps 754 mmHg 91%
01:00 -21°C° 0.2 mm 3 mps 754 mmHg 92%
02:00 -22°C° 0.2 mm 4 mps 754 mmHg 94%
03:00 -22°C° 0.2 mm 4 mps 754 mmHg 95%
04:00 -22°C° 0.1 mm 4 mps 753 mmHg 95%
05:00 -20°C° 0.1 mm 4 mps 753 mmHg 95%
06:00 -20°C° 0.1 mm 4 mps 753 mmHg 94%
07:00 -20°C° 0.2 mm 4 mps 753 mmHg 95%
08:00 -20°C° 0.2 mm 4 mps 753 mmHg 95%
09:00 -20°C° 0.2 mm 4 mps 753 mmHg 95%
10:00 -20°C° 0.3 mm 4 mps 753 mmHg 95%
11:00 -19°C° 0.3 mm 4 mps 753 mmHg 95%
12:00 -19°C° 0.3 mm 4 mps 752 mmHg 95%
13:00 -18°C° 0.5 mm 3 mps 752 mmHg 95%
14:00 -18°C° 0.5 mm 3 mps 752 mmHg 95%
15:00 -18°C° 0.5 mm 3 mps 752 mmHg 95%
16:00 -18°C° 0.5 mm 3 mps 752 mmHg 95%
17:00 -18°C° 0.5 mm 3 mps 752 mmHg 95%
18:00 -18°C° 0.5 mm 3 mps 752 mmHg 96%
19:00 -17°C° 0.5 mm 2 mps 752 mmHg 96%
20:00 -17°C° 0.5 mm 2 mps 752 mmHg 96%
21:00 -17°C° 0.5 mm 2 mps 753 mmHg 96%
22:00 -17°C° 0.4 mm 2 mps 753 mmHg 96%
23:00 -17°C° 0.4 mm 2 mps 753 mmHg 96%

20 January, Wednesday

Time Temperature Precipitation Wind Pressure Humidity
00:00 -17°C° 0.4 mm 2 mps 753 mmHg 96%
01:00 -18°C° 0.3 mm 2 mps 754 mmHg 96%
02:00 -18°C° 0.3 mm 2 mps 754 mmHg 96%
03:00 -16°C° 0.3 mm 1 mps 754 mmHg 96%
04:00 -16°C° 0 mm 1 mps 755 mmHg 96%
05:00 -19°C° 0 mm 2 mps 755 mmHg 95%
06:00 -19°C° 0 mm 2 mps 756 mmHg 95%
07:00 -17°C° 0 mm 1 mps 756 mmHg 95%
08:00 -17°C° 0 mm 1 mps 757 mmHg 95%
09:00 -16°C° 0 mm 1 mps 757 mmHg 95%
10:00 -16°C° 0 mm 1 mps 758 mmHg 93%
11:00 -15°C° 0 mm 1 mps 758 mmHg 92%
12:00 -14°C° 0 mm 1 mps 759 mmHg 91%
13:00 -15°C° 0 mm 1 mps 759 mmHg 92%
14:00 -16°C° 0 mm 1 mps 759 mmHg 94%
15:00 -16°C° 0 mm 1 mps 760 mmHg 95%
16:00 -17°C° 0 mm 1 mps 760 mmHg 96%
17:00 -18°C° 0 mm 1 mps 761 mmHg 97%
18:00 -19°C° 0 mm 1 mps 761 mmHg 98%
19:00 -20°C° 0 mm 1 mps 762 mmHg 99%
20:00 -21°C° 0 mm 1 mps 762 mmHg 99%
21:00 -21°C° 0 mm 1 mps 762 mmHg 99%
22:00 -22°C° 0 mm 1 mps 763 mmHg 99%
23:00 -22°C° 0 mm 1 mps 763 mmHg 99%
Show more